Tracking 30923 objects as of 30-Jun-2025
HD Live streaming from Space Station
objects crossing your sky now

INTELSAT 3-F7

Track INTELSAT 3-F7 now!
INTELSAT 3-F7 is classified as:


NORAD ID: 4376
Int'l Code: 1970-032A
Perigee: 35,771.1 km
Apogee: 35,785.3 km
Inclination: 1.5 °
Period: 1,435.3 minutes
Semi major axis: 42149 km
RCS: 0.003 m2 (small)
Launch date: April 23, 1970
Source: International Telecommunications Satellite Organization (ITSO)
Launch site: AIR FORCE EASTERN TEST RANGE (AFETR)
Your satellite tracking list
Your tracking list is empty




NASA's NSSDC Master Catalog

Two Line Element Set (TLE):
1  4376U 70032A   25180.44677758  .00000111  00000-0  00000+0 0  9998
2  4376   1.5195  96.2866 0001684 226.2132 132.9712  1.00327361202133
Source of the keplerian elements: AFSPC